Location: Aubrey
(33.1990°N, 85.1361°W)
Time: 01:15:26
(UTC+00:00)

X-37B - Pass Details

Date: 18 September 2021
Orbit: 385 x 389 km, 45.0° (Epoch: 13 October)

Event Time Altitude Azimuth Distance (km) Brightness Sun altitude
Exits shadow 10:09:10 11° 182° (S) 1,336 3.1 -16.8°
Maximum altitude 10:11:15 19° 137° (SE) 996 3.0 -16.3°
Drops below altitude 10° 10:13:35 10° 90° (E) 1,409 4.7 -15.9°
Sets 10:16:02 0° 71° (ENE) 2,267 6.3 -15.4°
